N57WS EDDF-LFMN

Flight info

Callsign N57WS
Flight time 1h 3m
Altitude 36000
Route ANEKI2L/18 ANEKI Y163 NATOR DCT TRA DCT RIPUS DCT GERSA DCT SOSON DCT ODINA DCT ENOBA Z185 BORDI
Aircraft A343/H-SDE2E3FGHIJ4J5M1RWXY/LB1D1

Departure

Time 2026-05-07 18:50
Airport Frankfurt Main Airport (EDDF)

Arrival

Time 2026-05-07 19:53
Airport Nice-Côte d'Azur Airport (LFMN)
Time Latitude Longitude Altitude Speed Heading
2026-05-07 17:53 50.03816 8.54586 350 ft 0 kts 159°
2026-05-07 17:55 50.03820 8.54583 349 ft 0 kts 160°
2026-05-07 17:55 50.03817 8.54585 350 ft 0 kts 160°
2026-05-07 18:42 50.03818 8.54585 347 ft 0 kts 160°
2026-05-07 18:44 50.03801 8.54594 355 ft 7 kts 160°
2026-05-07 18:45 50.03747 8.54620 349 ft 9 kts 175°
2026-05-07 18:45 50.03721 8.54581 355 ft 6 kts 243°
2026-05-07 18:45 50.03693 8.54467 352 ft 15 kts 250°
2026-05-07 18:45 50.03654 8.54297 354 ft 18 kts 249°
2026-05-07 18:46 50.03624 8.54173 351 ft 12 kts 249°
2026-05-07 18:46 50.03592 8.54043 352 ft 14 kts 249°
2026-05-07 18:46 50.03554 8.53883 349 ft 17 kts 250°
2026-05-07 18:46 50.03511 8.53700 357 ft 19 kts 250°
2026-05-07 18:47 50.03463 8.53501 354 ft 19 kts 248°
2026-05-07 18:47 50.03438 8.53395 351 ft 9 kts 249°
2026-05-07 18:47 50.03413 8.53295 353 ft 11 kts 249°
2026-05-07 18:47 50.03391 8.53205 354 ft 9 kts 250°
2026-05-07 18:48 50.03365 8.53092 351 ft 14 kts 250°
2026-05-07 18:48 50.03326 8.52926 353 ft 19 kts 250°
2026-05-07 18:48 50.03298 8.52807 353 ft 10 kts 250°
2026-05-07 18:48 50.03275 8.52712 354 ft 6 kts 249°
2026-05-07 18:49 50.03255 8.52624 354 ft 8 kts 230°
2026-05-07 18:49 50.03192 8.52596 350 ft 12 kts 180°
2026-05-07 18:49 50.02968 8.52599 352 ft 70 kts 179°
2026-05-07 18:49 50.02154 8.52608 351 ft 160 kts 179°
2026-05-07 18:50 50.00901 8.52600 1054 ft 180 kts 179°
2026-05-07 18:50 49.99641 8.52639 2196 ft 184 kts 177°
2026-05-07 18:50 49.98347 8.52718 3093 ft 189 kts 177°
2026-05-07 18:50 49.96995 8.52836 3810 ft 206 kts 177°
2026-05-07 18:51 49.95451 8.52968 3975 ft 235 kts 177°
2026-05-07 18:51 49.93797 8.53094 3996 ft 239 kts 178°
2026-05-07 18:51 49.92136 8.53213 4012 ft 238 kts 178°
2026-05-07 18:51 49.90484 8.53327 4064 ft 236 kts 178°
2026-05-07 18:52 49.88828 8.53439 4526 ft 240 kts 178°
2026-05-07 18:52 49.87150 8.53552 5551 ft 241 kts 179°
2026-05-07 18:52 49.85484 8.53664 6866 ft 239 kts 179°
2026-05-07 18:52 49.83818 8.53775 8042 ft 240 kts 179°
2026-05-07 18:53 49.82182 8.53883 9133 ft 244 kts 179°
2026-05-07 18:53 49.80468 8.53996 10210 ft 248 kts 179°
2026-05-07 18:53 49.78726 8.54099 11180 ft 252 kts 181°
2026-05-07 18:53 49.76964 8.54000 12121 ft 258 kts 186°
2026-05-07 18:54 49.75128 8.53766 12783 ft 277 kts 187°
2026-05-07 18:54 49.73105 8.53485 13049 ft 308 kts 187°
2026-05-07 18:54 49.70847 8.53175 13069 ft 343 kts 186°
2026-05-07 18:54 49.68363 8.52841 13116 ft 369 kts 186°
2026-05-07 18:55 49.65764 8.52499 13779 ft 378 kts 186°
2026-05-07 18:55 49.63173 8.52308 14845 ft 375 kts 183°
2026-05-07 18:55 49.60561 8.52153 15778 ft 377 kts 184°
2026-05-07 18:55 49.57922 8.52002 16647 ft 381 kts 184°
2026-05-07 18:56 49.55245 8.51860 17488 ft 386 kts 184°
2026-05-07 18:56 49.52548 8.51727 18322 ft 390 kts 184°
2026-05-07 18:56 49.49815 8.51599 19029 ft 395 kts 184°
2026-05-07 18:56 49.47042 8.51472 19740 ft 400 kts 184°
2026-05-07 18:57 49.44277 8.51348 20441 ft 404 kts 184°
2026-05-07 18:57 49.41423 8.51221 21146 ft 408 kts 184°
2026-05-07 18:57 49.38583 8.51094 21830 ft 412 kts 184°
2026-05-07 18:57 49.35677 8.50964 22501 ft 417 kts 184°
2026-05-07 18:58 49.32807 8.50835 23146 ft 421 kts 184°
2026-05-07 18:58 49.29825 8.50701 23758 ft 425 kts 184°
2026-05-07 18:58 49.26848 8.50567 24286 ft 429 kts 184°
2026-05-07 18:58 49.23892 8.50435 24784 ft 433 kts 184°
2026-05-07 18:59 49.20873 8.50299 25296 ft 437 kts 184°
2026-05-07 18:59 49.17817 8.50162 25796 ft 440 kts 184°
2026-05-07 18:59 49.14747 8.50025 26296 ft 443 kts 184°
2026-05-07 18:59 49.11649 8.49887 26767 ft 447 kts 184°
2026-05-07 19:00 49.08536 8.49748 27233 ft 450 kts 184°
2026-05-07 19:00 49.05391 8.49608 27688 ft 454 kts 184°
2026-05-07 19:00 49.02224 8.49467 28141 ft 457 kts 184°
2026-05-07 19:00 48.99026 8.49324 28571 ft 460 kts 184°
2026-05-07 19:01 48.95812 8.49182 29034 ft 462 kts 184°
2026-05-07 19:01 48.92585 8.49040 29475 ft 465 kts 184°
2026-05-07 19:01 48.89335 8.48896 29871 ft 469 kts 184°
2026-05-07 19:01 48.86065 8.48752 30250 ft 472 kts 184°
2026-05-07 19:02 48.82774 8.48606 30578 ft 474 kts 184°
2026-05-07 19:02 48.79470 8.48460 30938 ft 476 kts 184°
2026-05-07 19:02 48.76152 8.48314 31285 ft 478 kts 184°
2026-05-07 19:02 48.72835 8.48170 31831 ft 475 kts 184°
2026-05-07 19:03 48.69539 8.48027 32323 ft 473 kts 184°
2026-05-07 19:03 48.66256 8.47884 32775 ft 472 kts 185°
2026-05-07 19:03 48.62975 8.47740 33234 ft 471 kts 185°
2026-05-07 19:03 48.59754 8.47600 33688 ft 470 kts 185°
2026-05-07 19:04 48.56488 8.47456 34127 ft 468 kts 185°
2026-05-07 19:04 48.53238 8.47314 34504 ft 468 kts 185°
2026-05-07 19:04 48.49983 8.47173 34861 ft 467 kts 185°
2026-05-07 19:04 48.46731 8.47031 35045 ft 471 kts 185°
2026-05-07 19:05 48.43444 8.46886 35073 ft 473 kts 185°
2026-05-07 19:05 48.36776 8.46592 35073 ft 483 kts 185°
2026-05-07 19:06 48.31176 8.46350 35065 ft 484 kts 185°
2026-05-07 19:06 48.21086 8.45920 35059 ft 483 kts 185°
2026-05-07 19:07 48.14359 8.45631 35056 ft 483 kts 185°
2026-05-07 19:07 48.07634 8.45342 35062 ft 483 kts 185°
2026-05-07 19:08 48.00914 8.45054 35064 ft 483 kts 185°
2026-05-07 19:08 47.94197 8.44768 35064 ft 483 kts 185°
2026-05-07 19:09 47.87484 8.44482 35060 ft 482 kts 185°
2026-05-07 19:09 47.80807 8.44200 35058 ft 482 kts 185°
2026-05-07 19:10 47.74105 8.43913 35049 ft 482 kts 185°
2026-05-07 19:10 47.67391 8.43988 35048 ft 485 kts 179°
2026-05-07 19:11 47.60673 8.44867 35048 ft 486 kts 178°
2026-05-07 19:11 47.53942 8.45878 35046 ft 486 kts 178°
2026-05-07 19:12 47.47217 8.46892 35037 ft 486 kts 178°
2026-05-07 19:12 47.40496 8.47888 35051 ft 485 kts 178°
2026-05-07 19:13 47.33775 8.48871 35048 ft 485 kts 178°
2026-05-07 19:13 47.27061 8.49848 35036 ft 485 kts 179°
2026-05-07 19:14 47.20347 8.50826 35039 ft 485 kts 179°
2026-05-07 19:14 47.13634 8.51762 35038 ft 484 kts 179°
2026-05-07 19:15 47.06917 8.52747 35039 ft 485 kts 178°
2026-05-07 19:15 47.00203 8.53748 35044 ft 484 kts 179°
2026-05-07 19:16 46.93568 8.54714 35040 ft 484 kts 179°
2026-05-07 19:16 46.86910 8.55668 35042 ft 484 kts 179°
2026-05-07 19:17 46.80220 8.56623 35035 ft 483 kts 179°
2026-05-07 19:17 46.73529 8.57580 35029 ft 483 kts 179°
2026-05-07 19:18 46.67026 8.58509 35034 ft 484 kts 179°
2026-05-07 19:18 46.60328 8.59464 35028 ft 483 kts 179°
2026-05-07 19:19 46.53650 8.60413 35026 ft 482 kts 179°
2026-05-07 19:19 46.46978 8.61359 35022 ft 482 kts 179°
2026-05-07 19:20 46.40301 8.62300 35014 ft 481 kts 179°
2026-05-07 19:20 46.33685 8.63234 35014 ft 481 kts 179°
2026-05-07 19:21 46.27020 8.64171 34995 ft 481 kts 179°
2026-05-07 19:21 46.20374 8.65092 34992 ft 480 kts 179°
2026-05-07 19:22 46.13715 8.66028 34995 ft 480 kts 179°
2026-05-07 19:22 46.07127 8.65788 35006 ft 472 kts 191°
2026-05-07 19:23 46.00629 8.64573 34993 ft 470 kts 192°
2026-05-07 19:23 45.94173 8.63213 34993 ft 469 kts 193°
2026-05-07 19:24 45.87716 8.61859 34989 ft 468 kts 193°
2026-05-07 19:24 45.81258 8.60535 34989 ft 468 kts 193°
2026-05-07 19:25 45.74819 8.59231 34987 ft 466 kts 193°
2026-05-07 19:25 45.68399 8.57934 34968 ft 466 kts 193°
2026-05-07 19:26 45.61980 8.56639 34964 ft 466 kts 193°
2026-05-07 19:26 45.55551 8.55345 34994 ft 465 kts 193°
2026-05-07 19:27 45.49145 8.54058 34993 ft 465 kts 193°
2026-05-07 19:27 45.42782 8.52782 35012 ft 464 kts 193°
2026-05-07 19:28 45.36389 8.51504 35024 ft 463 kts 193°
2026-05-07 19:28 45.30005 8.50231 35016 ft 463 kts 193°
2026-05-07 19:29 45.23619 8.48960 34999 ft 463 kts 193°
2026-05-07 19:29 45.17242 8.47693 35002 ft 462 kts 193°
2026-05-07 19:30 45.10871 8.46430 34985 ft 462 kts 193°
2026-05-07 19:30 45.04500 8.45169 34984 ft 462 kts 194°
2026-05-07 19:31 44.98143 8.43915 34986 ft 461 kts 194°
2026-05-07 19:31 44.91781 8.42663 34989 ft 461 kts 194°
2026-05-07 19:32 44.85425 8.41416 34983 ft 460 kts 194°
2026-05-07 19:32 44.79099 8.40177 34989 ft 458 kts 194°
2026-05-07 19:33 44.72785 8.38941 34996 ft 458 kts 194°
2026-05-07 19:33 44.66519 8.37715 34996 ft 457 kts 195°
2026-05-07 19:34 44.60214 8.36485 35001 ft 456 kts 195°
2026-05-07 19:34 44.53921 8.35263 35005 ft 456 kts 195°
2026-05-07 19:35 44.50799 8.34655 34706 ft 449 kts 195°
2026-05-07 19:35 44.47698 8.34056 33749 ft 452 kts 195°
2026-05-07 19:35 44.44557 8.33442 32641 ft 457 kts 195°
2026-05-07 19:35 44.41397 8.32823 31511 ft 461 kts 194°
2026-05-07 19:36 44.38199 8.32201 30378 ft 466 kts 193°
2026-05-07 19:36 44.35019 8.31517 29427 ft 466 kts 198°
2026-05-07 19:36 44.31970 8.30118 28711 ft 457 kts 209°
2026-05-07 19:36 44.29301 8.27857 28016 ft 441 kts 222°
2026-05-07 19:37 44.27160 8.24868 27330 ft 434 kts 233°
2026-05-07 19:37 44.25314 8.21543 26527 ft 431 kts 236°
2026-05-07 19:37 44.23592 8.18143 25721 ft 429 kts 237°
2026-05-07 19:37 44.21919 8.14697 24931 ft 428 kts 237°
2026-05-07 19:38 44.20261 8.11248 24133 ft 427 kts 237°
2026-05-07 19:38 44.18603 8.07819 23346 ft 428 kts 237°
2026-05-07 19:38 44.16924 8.04386 22440 ft 428 kts 236°
2026-05-07 19:38 44.15242 8.00982 21528 ft 426 kts 236°
2026-05-07 19:39 44.13560 7.97603 20669 ft 423 kts 235°
2026-05-07 19:39 44.11895 7.94270 19834 ft 412 kts 235°
2026-05-07 19:39 44.10281 7.91036 19051 ft 404 kts 235°
2026-05-07 19:39 44.08672 7.87833 18269 ft 403 kts 234°
2026-05-07 19:40 44.07064 7.84642 17376 ft 403 kts 234°
2026-05-07 19:40 44.05460 7.81458 16507 ft 401 kts 234°
2026-05-07 19:40 44.03862 7.78287 15689 ft 399 kts 234°
2026-05-07 19:40 44.02272 7.75131 14875 ft 397 kts 234°
2026-05-07 19:41 44.00682 7.72022 14131 ft 394 kts 232°
2026-05-07 19:41 43.98778 7.69436 13367 ft 382 kts 214°
2026-05-07 19:41 43.96468 7.67748 12870 ft 371 kts 204°
2026-05-07 19:41 43.94120 7.66347 12360 ft 364 kts 203°
2026-05-07 19:42 43.91797 7.64984 11787 ft 360 kts 203°
2026-05-07 19:42 43.89503 7.63636 11183 ft 357 kts 203°
2026-05-07 19:42 43.87226 7.62293 10575 ft 354 kts 203°
2026-05-07 19:42 43.84971 7.60959 10008 ft 351 kts 203°
2026-05-07 19:43 43.82736 7.59632 9412 ft 343 kts 203°
2026-05-07 19:43 43.80613 7.58374 8821 ft 318 kts 203°
2026-05-07 19:43 43.78667 7.57219 8216 ft 293 kts 203°
2026-05-07 19:43 43.76833 7.56129 7650 ft 283 kts 203°
2026-05-07 19:44 43.75029 7.55052 7175 ft 281 kts 203°
2026-05-07 19:44 43.73251 7.53992 7018 ft 276 kts 203°
2026-05-07 19:44 43.71487 7.52940 7005 ft 276 kts 203°
2026-05-07 19:44 43.69722 7.51890 7006 ft 276 kts 203°
2026-05-07 19:45 43.68067 7.50555 6911 ft 278 kts 220°
2026-05-07 19:45 43.66764 7.48581 6578 ft 277 kts 232°
2026-05-07 19:45 43.65602 7.46477 6297 ft 273 kts 233°
2026-05-07 19:45 43.64493 7.44426 6089 ft 258 kts 233°
2026-05-07 19:46 43.63460 7.42507 5789 ft 242 kts 233°
2026-05-07 19:46 43.62467 7.40668 5306 ft 236 kts 233°
2026-05-07 19:46 43.61490 7.38861 4809 ft 233 kts 233°
2026-05-07 19:46 43.60531 7.37090 4282 ft 229 kts 233°
2026-05-07 19:47 43.59583 7.35342 3797 ft 226 kts 233°
2026-05-07 19:47 43.58653 7.33607 3299 ft 223 kts 233°
2026-05-07 19:47 43.57757 7.31925 3033 ft 211 kts 233°
2026-05-07 19:47 43.56903 7.30306 3001 ft 207 kts 233°
2026-05-07 19:48 43.56093 7.28772 2928 ft 190 kts 233°
2026-05-07 19:48 43.55371 7.27322 2756 ft 178 kts 241°
2026-05-07 19:48 43.54899 7.25784 2509 ft 172 kts 252°
2026-05-07 19:48 43.54783 7.24162 2182 ft 170 kts 277°
2026-05-07 19:49 43.54974 7.22606 2011 ft 165 kts 281°
2026-05-07 19:49 43.55208 7.21049 2007 ft 166 kts 282°
2026-05-07 19:49 43.55557 7.19547 2006 ft 163 kts 303°
2026-05-07 19:49 43.56326 7.18487 2001 ft 153 kts 318°
2026-05-07 19:50 43.57063 7.17465 1779 ft 151 kts 314°
2026-05-07 19:50 43.57799 7.16480 1463 ft 146 kts 329°
2026-05-07 19:50 43.58750 7.16152 1204 ft 135 kts 358°
2026-05-07 19:50 43.59635 7.15992 1166 ft 126 kts 354°
2026-05-07 19:51 43.60510 7.15875 1110 ft 127 kts
2026-05-07 19:51 43.61386 7.15970 991 ft 126 kts 12°
2026-05-07 19:51 43.62191 7.16421 828 ft 123 kts 36°
2026-05-07 19:51 43.62870 7.17158 745 ft 123 kts 49°
2026-05-07 19:52 43.63260 7.17748 672 ft 132 kts 47°
2026-05-07 19:52 43.63917 7.18666 409 ft 133 kts 48°
2026-05-07 19:52 43.64544 7.19533 248 ft 123 kts 45°
2026-05-07 19:52 43.65144 7.20354 94 ft 122 kts 45°
2026-05-07 19:53 43.65716 7.21144 28 ft 101 kts 45°
2026-05-07 19:53 43.66127 7.21706 30 ft 62 kts 45°
2026-05-07 19:53 43.66331 7.21957 28 ft 33 kts 31°
2026-05-07 19:53 43.66486 7.22049 28 ft 6 kts 15°
2026-05-07 19:54 43.66538 7.22046 29 ft 7 kts 334°
2026-05-07 19:54 43.66548 7.22033 26 ft 0 kts 318°
2026-05-07 19:56 43.66549 7.22033 26 ft 1 kts 318°
2026-05-07 19:56 43.66570 7.22007 29 ft 7 kts 317°
2026-05-07 19:56 43.66598 7.21969 29 ft 5 kts 316°
2026-05-07 19:56 43.66633 7.21923 30 ft 11 kts 314°
2026-05-07 19:57 43.66648 7.21884 30 ft 6 kts 279°
2026-05-07 19:57 43.66623 7.21827 31 ft 9 kts 229°
2026-05-07 19:57 43.66580 7.21764 32 ft 0 kts 226°
2026-05-07 19:58 43.66579 7.21764 32 ft 1 kts 226°
2026-05-07 19:58 43.66576 7.21759 31 ft 1 kts 226°
2026-05-07 19:58 43.66570 7.21742 29 ft 1 kts 255°
2026-05-07 19:59 43.66573 7.21726 29 ft 3 kts 280°
2026-05-07 19:59 43.66588 7.21696 32 ft 5 kts 311°
2026-05-07 19:59 43.66603 7.21671 29 ft 4 kts 311°
2026-05-07 19:59 43.66609 7.21663 29 ft 0 kts 312°